When you browse on this site, cookies collect data to enhance your experience and personalize the content and advertising you see.
Visit our Privacy Policy to learn more. By continuing to use the site, you agree to this use of cookies and data.

Hourly Weather Elbasan

Today, 7 July, Tuesday

Time Temperature Precipitation Wind Pressure Humidity
00:00 +21°C° 0 mm 2 mps 728 mmHg 72%
01:00 +21°C° 0 mm 2 mps 728 mmHg 72%
02:00 +21°C° 0 mm 2 mps 728 mmHg 71%
03:00 +22°C° 0 mm 1 mps 727 mmHg 71%
04:00 +22°C° 0 mm 1 mps 727 mmHg 71%
05:00 +23°C° 0 mm 1 mps 728 mmHg 67%
06:00 +25°C° 0 mm 1 mps 728 mmHg 63%
07:00 +27°C° 0 mm 1 mps 729 mmHg 59%
08:00 +29°C° 0 mm 1 mps 729 mmHg 54%
09:00 +30°C° 0 mm 1 mps 729 mmHg 49%
10:00 +32°C° 0 mm 1 mps 730 mmHg 44%
11:00 +32°C° 0.1 mm 2 mps 730 mmHg 43%
12:00 +34°C° 0.1 mm 2 mps 730 mmHg 42%
13:00 +35°C° 0.1 mm 2 mps 730 mmHg 41%
14:00 +34°C° 0.4 mm 3 mps 730 mmHg 46%
15:00 +31°C° 0.4 mm 3 mps 730 mmHg 51%
16:00 +30°C° 0.4 mm 3 mps 730 mmHg 56%
17:00 +29°C° 0.3 mm 3 mps 731 mmHg 61%
18:00 +27°C° 0.3 mm 2 mps 731 mmHg 67%
19:00 +25°C° 0.3 mm 2 mps 731 mmHg 72%
20:00 +24°C° 0 mm 2 mps 732 mmHg 76%
21:00 +23°C° 0 mm 2 mps 732 mmHg 79%
22:00 +21°C° 0 mm 2 mps 733 mmHg 82%
23:00 +21°C° 0 mm 2 mps 733 mmHg 82%

Tomorrow, 8 July, Wednesday

Time Temperature Precipitation Wind Pressure Humidity
00:00 +20°C° 0 mm 2 mps 733 mmHg 83%
01:00 +19°C° 0 mm 2 mps 733 mmHg 83%
02:00 +19°C° 0 mm 2 mps 733 mmHg 82%
03:00 +18°C° 0 mm 3 mps 733 mmHg 81%
04:00 +18°C° 0 mm 3 mps 733 mmHg 80%
05:00 +19°C° 0 mm 3 mps 733 mmHg 75%
06:00 +20°C° 0 mm 3 mps 734 mmHg 70%
07:00 +21°C° 0 mm 3 mps 734 mmHg 65%
08:00 +24°C° 0 mm 3 mps 734 mmHg 59%
09:00 +26°C° 0 mm 2 mps 735 mmHg 53%
10:00 +28°C° 0 mm 2 mps 735 mmHg 46%
11:00 +29°C° 0 mm 2 mps 735 mmHg 45%
12:00 +30°C° 0 mm 2 mps 735 mmHg 43%
13:00 +31°C° 0 mm 2 mps 735 mmHg 42%
14:00 +31°C° 0 mm 2 mps 735 mmHg 43%
15:00 +31°C° 0 mm 3 mps 735 mmHg 44%
16:00 +30°C° 0 mm 3 mps 735 mmHg 45%
17:00 +28°C° 0 mm 2 mps 735 mmHg 52%
18:00 +26°C° 0 mm 2 mps 735 mmHg 59%
19:00 +24°C° 0 mm 1 mps 735 mmHg 67%
20:00 +23°C° 0 mm 1 mps 735 mmHg 69%
21:00 +23°C° 0 mm 1 mps 735 mmHg 71%
22:00 +22°C° 0 mm 1 mps 735 mmHg 74%
23:00 +22°C° 0 mm 1 mps 735 mmHg 74%

Day after tomorrow, 9 July, Thursday

Time Temperature Precipitation Wind Pressure Humidity
00:00 +21°C° 0 mm 1 mps 735 mmHg 74%
01:00 +20°C° 0 mm 2 mps 736 mmHg 74%
02:00 +20°C° 0 mm 2 mps 736 mmHg 74%
03:00 +20°C° 0 mm 2 mps 736 mmHg 74%
04:00 +20°C° 0 mm 2 mps 736 mmHg 74%
05:00 +21°C° 0 mm 2 mps 736 mmHg 69%
06:00 +24°C° 0 mm 2 mps 736 mmHg 65%
07:00 +26°C° 0 mm 1 mps 736 mmHg 60%
08:00 +27°C° 0 mm 1 mps 736 mmHg 55%
09:00 +29°C° 0 mm 1 mps 737 mmHg 50%
10:00 +31°C° 0 mm 1 mps 737 mmHg 44%
11:00 +32°C° 0 mm 2 mps 736 mmHg 42%
12:00 +32°C° 0 mm 2 mps 736 mmHg 39%
13:00 +34°C° 0 mm 2 mps 736 mmHg 37%
14:00 +34°C° 0 mm 2 mps 736 mmHg 38%
15:00 +33°C° 0 mm 3 mps 735 mmHg 39%
16:00 +33°C° 0 mm 3 mps 735 mmHg 41%
17:00 +30°C° 0 mm 2 mps 735 mmHg 48%
18:00 +28°C° 0 mm 2 mps 735 mmHg 55%
19:00 +26°C° 0 mm 1 mps 735 mmHg 63%
20:00 +25°C° 0 mm 1 mps 736 mmHg 63%
21:00 +24°C° 0 mm 1 mps 736 mmHg 64%
22:00 +23°C° 0 mm 1 mps 736 mmHg 65%
23:00 +23°C° 0 mm 2 mps 736 mmHg 65%

10 July, Friday

Time Temperature Precipitation Wind Pressure Humidity
00:00 +23°C° 0 mm 2 mps 736 mmHg 64%
01:00 +21°C° 0 mm 2 mps 736 mmHg 64%
02:00 +21°C° 0 mm 2 mps 735 mmHg 65%
03:00 +21°C° 0 mm 2 mps 735 mmHg 66%
04:00 +20°C° 0 mm 2 mps 735 mmHg 67%
05:00 +23°C° 0 mm 2 mps 735 mmHg 64%
06:00 +25°C° 0 mm 2 mps 735 mmHg 61%
07:00 +27°C° 0 mm 2 mps 736 mmHg 58%
08:00 +28°C° 0 mm 1 mps 736 mmHg 53%
09:00 +30°C° 0 mm 1 mps 736 mmHg 48%
10:00 +32°C° 0 mm 1 mps 736 mmHg 42%
11:00 +34°C° 0 mm 2 mps 735 mmHg 41%
12:00 +34°C° 0 mm 2 mps 735 mmHg 39%
13:00 +35°C° 0 mm 2 mps 735 mmHg 37%
14:00 +34°C° 0 mm 2 mps 735 mmHg 41%
15:00 +32°C° 0 mm 2 mps 734 mmHg 44%
16:00 +31°C° 0 mm 2 mps 734 mmHg 47%
17:00 +30°C° 0 mm 2 mps 734 mmHg 53%
18:00 +28°C° 0 mm 1 mps 734 mmHg 58%
19:00 +26°C° 0 mm 1 mps 734 mmHg 64%
20:00 +25°C° 0 mm 1 mps 734 mmHg 65%
21:00 +25°C° 0 mm 1 mps 734 mmHg 67%
22:00 +24°C° 0 mm 1 mps 735 mmHg 68%
23:00 +24°C° 0 mm 1 mps 735 mmHg 68%

11 July, Saturday

Time Temperature Precipitation Wind Pressure Humidity
00:00 +23°C° 0 mm 1 mps 734 mmHg 69%
01:00 +23°C° 0 mm 1 mps 734 mmHg 69%
02:00 +23°C° 0 mm 1 mps 734 mmHg 70%
03:00 +22°C° 0 mm 1 mps 734 mmHg 70%
04:00 +22°C° 0 mm 1 mps 734 mmHg 71%
05:00 +24°C° 0 mm 1 mps 734 mmHg 66%
06:00 +26°C° 0 mm 1 mps 734 mmHg 62%
07:00 +27°C° 0 mm 1 mps 734 mmHg 57%
08:00 +29°C° 0 mm 1 mps 735 mmHg 53%
09:00 +31°C° 0 mm 1 mps 735 mmHg 48%
10:00 +32°C° 0 mm 1 mps 735 mmHg 43%
11:00 +34°C° 0 mm 2 mps 735 mmHg 41%
12:00 +34°C° 0 mm 2 mps 734 mmHg 39%
13:00 +35°C° 0 mm 3 mps 734 mmHg 37%
14:00 +34°C° 0 mm 3 mps 734 mmHg 39%
15:00 +34°C° 0 mm 3 mps 734 mmHg 40%
16:00 +33°C° 0 mm 3 mps 734 mmHg 42%
17:00 +30°C° 0 mm 3 mps 734 mmHg 48%
18:00 +28°C° 0 mm 2 mps 733 mmHg 55%
19:00 +26°C° 0 mm 1 mps 733 mmHg 61%
20:00 +25°C° 0 mm 1 mps 734 mmHg 62%
21:00 +25°C° 0 mm 1 mps 734 mmHg 64%
22:00 +24°C° 0 mm 1 mps 734 mmHg 66%
23:00 +24°C° 0 mm 1 mps 734 mmHg 66%

12 July, Sunday

Time Temperature Precipitation Wind Pressure Humidity
00:00 +23°C° 0 mm 1 mps 734 mmHg 67%
01:00 +23°C° 0 mm 1 mps 734 mmHg 67%
02:00 +23°C° 0 mm 1 mps 734 mmHg 68%
03:00 +22°C° 0 mm 1 mps 734 mmHg 69%
04:00 +22°C° 0 mm 1 mps 734 mmHg 69%
05:00 +24°C° 0 mm 1 mps 734 mmHg 66%
06:00 +26°C° 0 mm 1 mps 735 mmHg 63%
07:00 +27°C° 0 mm 1 mps 735 mmHg 59%
08:00 +29°C° 0 mm 1 mps 735 mmHg 55%
09:00 +31°C° 0 mm 1 mps 736 mmHg 50%
10:00 +33°C° 0 mm 1 mps 736 mmHg 46%
11:00 +34°C° 0.1 mm 2 mps 736 mmHg 44%
12:00 +35°C° 0.1 mm 3 mps 735 mmHg 42%
13:00 +35°C° 0.1 mm 3 mps 735 mmHg 40%
14:00 +35°C° 0.1 mm 3 mps 735 mmHg 41%
15:00 +34°C° 0.1 mm 4 mps 735 mmHg 43%
16:00 +34°C° 0.1 mm 4 mps 735 mmHg 45%
17:00 +31°C° 0 mm 3 mps 735 mmHg 53%
18:00 +28°C° 0 mm 2 mps 735 mmHg 62%
19:00 +26°C° 0 mm 2 mps 735 mmHg 70%
20:00 +25°C° 0 mm 1 mps 735 mmHg 74%
21:00 +24°C° 0 mm 1 mps 735 mmHg 77%
22:00 +23°C° 0 mm 1 mps 736 mmHg 81%
23:00 +23°C° 0 mm 1 mps 736 mmHg 81%
Show more